Time,TemperatureF,DewpointF,PressureIn,WindDirection,WindDirectionDegrees,WindSpeedMPH,WindSpeedGustMPH,Humidity,HourlyPrecipIn,Conditions,Clouds,dailyrainin,SoftwareType,DateUTC
2013-08-31 00:10:00,74.4,70.0,29.81,SSW,212,0.0,0.0,87,0.00,,,0.00,weatherlink.com 1.10,2013-08-31 04:10:00,
2013-08-31 00:25:00,74.1,70.0,29.80,SE,141,0.0,1.0,87,0.00,,,0.00,weatherlink.com 1.10,2013-08-31 04:25:00,
2013-08-31 00:40:00,74.3,70.0,29.81,SW,217,0.0,1.0,87,0.00,,,0.00,weatherlink.com 1.10,2013-08-31 04:40:00,
2013-08-31 00:55:00,74.5,71.0,29.81,West,259,0.0,2.0,87,0.00,,,0.00,weatherlink.com 1.10,2013-08-31 04:55:00,
2013-08-31 01:10:00,74.0,70.0,29.81,SW,233,0.0,2.0,88,0.00,,,0.00,weatherlink.com 1.10,2013-08-31 05:10:00,
2013-08-31 01:25:00,73.8,70.0,29.81,SW,233,0.0,0.0,89,0.00,,,0.00,weatherlink.com 1.10,2013-08-31 05:25:00,
2013-08-31 01:40:00,73.6,71.0,29.81,SW,215,1.0,2.0,91,0.00,,,0.00,weatherlink.com 1.10,2013-08-31 05:40:00,
2013-08-31 01:55:00,72.6,71.0,29.81,WSW,242,0.0,3.0,94,0.00,,,0.00,weatherlink.com 1.10,2013-08-31 05:55:00,
2013-08-31 02:10:00,72.3,71.0,29.80,East,96,1.0,1.0,94,0.00,,,0.00,weatherlink.com 1.10,2013-08-31 06:10:00,
2013-08-31 02:25:00,72.3,71.0,29.79,East,96,0.0,1.0,94,0.00,,,0.00,weatherlink.com 1.10,2013-08-31 06:25:00,
2013-08-31 02:40:00,72.4,71.0,29.79,East,96,0.0,0.0,94,0.00,,,0.00,weatherlink.com 1.10,2013-08-31 06:40:00,
2013-08-31 02:55:00,72.6,71.0,29.79,East,98,0.0,0.0,93,0.00,,,0.00,weatherlink.com 1.10,2013-08-31 06:55:00,
2013-08-31 03:10:00,72.8,71.0,29.79,East,97,0.0,0.0,93,0.00,,,0.00,weatherlink.com 1.10,2013-08-31 07:10:00,
2013-08-31 03:25:00,72.8,71.0,29.79,ESE,105,0.0,1.0,93,0.00,,,0.00,weatherlink.com 1.10,2013-08-31 07:25:00,
2013-08-31 03:40:00,72.8,71.0,29.78,ESE,104,0.0,0.0,93,0.00,,,0.00,weatherlink.com 1.10,2013-08-31 07:40:00,
2013-08-31 03:55:00,72.9,71.0,29.79,South,178,0.0,1.0,93,0.00,,,0.00,weatherlink.com 1.10,2013-08-31 07:55:00,
2013-08-31 04:10:00,73.2,71.0,29.79,SE,143,0.0,1.0,93,0.00,,,0.00,weatherlink.com 1.10,2013-08-31 08:10:00,
2013-08-31 04:25:00,72.9,71.0,29.79,SW,222,0.0,1.0,93,0.00,,,0.00,weatherlink.com 1.10,2013-08-31 08:25:00,
2013-08-31 04:40:00,73.0,71.0,29.79,SW,215,0.0,2.0,93,0.00,,,0.00,weatherlink.com 1.10,2013-08-31 08:40:00,
2013-08-31 04:55:00,73.1,71.0,29.79,South,184,2.0,3.0,93,0.00,,,0.00,weatherlink.com 1.10,2013-08-31 08:55:00,
2013-08-31 05:10:00,73.0,71.0,29.79,SSW,209,0.0,2.0,93,0.00,,,0.00,weatherlink.com 1.10,2013-08-31 09:10:00,
2013-08-31 05:25:00,72.8,71.0,29.79,SSW,213,0.0,1.0,94,0.00,,,0.00,weatherlink.com 1.10,2013-08-31 09:25:00,
2013-08-31 05:41:00,72.6,71.0,29.80,WSW,237,0.0,2.0,95,0.00,,,0.00,weatherlink.com 1.10,2013-08-31 09:41:00,
2013-08-31 05:56:00,72.4,71.0,29.80,SW,217,0.0,2.0,96,0.00,,,0.00,weatherlink.com 1.10,2013-08-31 09:56:00,
2013-08-31 06:11:00,72.0,71.0,29.81,SSW,209,0.0,1.0,96,0.00,,,0.00,weatherlink.com 1.10,2013-08-31 10:11:00,
2013-08-31 06:26:00,71.8,71.0,29.81,SSW,209,0.0,0.0,96,0.00,,,0.00,weatherlink.com 1.10,2013-08-31 10:26:00,
2013-08-31 06:41:00,71.8,71.0,29.81,East,82,0.0,1.0,97,0.00,,,0.00,weatherlink.com 1.10,2013-08-31 10:41:00,
2013-08-31 06:56:00,71.8,71.0,29.80,SW,229,0.0,1.0,97,0.00,,,0.00,weatherlink.com 1.10,2013-08-31 10:56:00,
2013-08-31 07:11:00,72.0,71.0,29.80,SW,224,0.0,1.0,96,0.00,,,0.00,weatherlink.com 1.10,2013-08-31 11:11:00,
2013-08-31 07:26:00,72.4,71.0,29.80,SSW,203,0.0,0.0,96,0.00,,,0.00,weatherlink.com 1.10,2013-08-31 11:26:00,
2013-08-31 07:41:00,72.4,71.0,29.82,NNW,338,0.0,2.0,96,0.00,,,0.00,weatherlink.com 1.10,2013-08-31 11:41:00,
2013-08-31 07:56:00,72.7,71.0,29.82,NW,311,4.0,7.0,95,0.03,,,0.03,weatherlink.com 1.10,2013-08-31 11:56:00,
2013-08-31 08:11:00,71.4,70.0,29.81,SE,129,0.0,2.0,95,0.12,,,0.12,weatherlink.com 1.10,2013-08-31 12:11:00,
2013-08-31 08:26:00,70.7,70.0,29.81,NNE,32,0.0,3.0,97,0.14,,,0.14,weatherlink.com 1.10,2013-08-31 12:26:00,
2013-08-31 08:41:00,70.1,69.0,29.84,SW,219,0.0,1.0,97,0.14,,,0.14,weatherlink.com 1.10,2013-08-31 12:41:00,
2013-08-31 08:56:00,70.0,69.0,29.84,SE,138,0.0,1.0,98,0.11,,,0.14,weatherlink.com 1.10,2013-08-31 12:56:00,
2013-08-31 09:11:00,70.1,70.0,29.83,SE,137,0.0,1.0,98,0.01,,,0.14,weatherlink.com 1.10,2013-08-31 13:11:00,
2013-08-31 09:26:00,70.2,70.0,29.82,SE,130,0.0,1.0,98,0.00,,,0.14,weatherlink.com 1.10,2013-08-31 13:26:00,
2013-08-31 09:41:00,70.7,70.0,29.83,SW,235,0.0,3.0,98,0.00,,,0.14,weatherlink.com 1.10,2013-08-31 13:41:00,
2013-08-31 09:56:00,71.0,70.0,29.84,SW,220,0.0,4.0,98,0.00,,,0.14,weatherlink.com 1.10,2013-08-31 13:56:00,
2013-08-31 10:11:00,71.5,71.0,29.84,SW,221,0.0,0.0,98,0.00,,,0.14,weatherlink.com 1.10,2013-08-31 14:11:00,
2013-08-31 10:26:00,71.8,71.0,29.84,SE,142,0.0,1.0,98,0.00,,,0.14,weatherlink.com 1.10,2013-08-31 14:26:00,
2013-08-31 10:41:00,72.6,72.0,29.83,SSE,152,1.0,2.0,98,0.00,,,0.14,weatherlink.com 1.10,2013-08-31 14:41:00,
2013-08-31 10:56:00,74.7,74.0,29.84,SW,219,2.0,5.0,97,0.00,,,0.14,weatherlink.com 1.10,2013-08-31 14:56:00,
2013-08-31 11:11:00,77.1,76.0,29.83,SE,140,1.0,4.0,95,0.00,,,0.14,weatherlink.com 1.10,2013-08-31 15:11:00,
2013-08-31 11:26:00,78.6,76.0,29.83,SW,226,4.0,5.0,90,0.00,,,0.14,weatherlink.com 1.10,2013-08-31 15:26:00,
2013-08-31 11:41:00,80.6,76.0,29.84,SSW,198,1.0,6.0,86,0.00,,,0.14,weatherlink.com 1.10,2013-08-31 15:41:00,
2013-08-31 11:56:00,81.2,76.0,29.84,SE,129,2.0,6.0,84,0.00,,,0.14,weatherlink.com 1.10,2013-08-31 15:56:00,
2013-08-31 12:11:00,81.4,76.0,29.83,SE,136,1.0,3.0,83,0.00,,,0.14,weatherlink.com 1.10,2013-08-31 16:11:00,
2013-08-31 12:26:00,82.7,77.0,29.83,West,264,1.0,9.0,83,0.00,,,0.14,weatherlink.com 1.10,2013-08-31 16:26:00,
2013-08-31 12:41:00,83.2,76.0,29.82,ESE,117,1.0,4.0,80,0.00,,,0.14,weatherlink.com 1.10,2013-08-31 16:41:00,
2013-08-31 12:56:00,84.2,77.0,29.82,ESE,120,1.0,5.0,79,0.00,,,0.14,weatherlink.com 1.10,2013-08-31 16:56:00,
2013-08-31 13:11:00,85.3,77.0,29.82,SSE,148,2.0,4.0,75,0.00,,,0.14,weatherlink.com 1.10,2013-08-31 17:11:00,
2013-08-31 13:26:00,86.0,78.0,29.82,SE,129,3.0,3.0,76,0.00,,,0.14,weatherlink.com 1.10,2013-08-31 17:26:00,
2013-08-31 13:42:00,86.6,77.0,29.81,ESE,111,1.0,7.0,73,0.00,,,0.14,weatherlink.com 1.10,2013-08-31 17:42:00,
2013-08-31 13:57:00,87.7,77.0,29.81,SE,143,2.0,3.0,71,0.00,,,0.14,weatherlink.com 1.10,2013-08-31 17:57:00,
2013-08-31 14:12:00,87.8,77.0,29.80,SE,138,2.0,4.0,70,0.00,,,0.14,weatherlink.com 1.10,2013-08-31 18:12:00,
2013-08-31 14:27:00,88.2,77.0,29.80,South,176,3.0,6.0,69,0.00,,,0.14,weatherlink.com 1.10,2013-08-31 18:27:00,
2013-08-31 14:42:00,89.0,78.0,29.79,SE,129,2.0,4.0,70,0.00,,,0.14,weatherlink.com 1.10,2013-08-31 18:42:00,
2013-08-31 14:57:00,89.2,78.0,29.78,WNW,283,2.0,9.0,69,0.00,,,0.14,weatherlink.com 1.10,2013-08-31 18:57:00,
2013-08-31 15:12:00,89.7,77.0,29.78,South,172,1.0,10.0,66,0.00,,,0.14,weatherlink.com 1.10,2013-08-31 19:12:00,
2013-08-31 15:27:00,89.7,77.0,29.77,SE,139,1.0,4.0,67,0.00,,,0.14,weatherlink.com 1.10,2013-08-31 19:27:00,
2013-08-31 15:42:00,89.7,77.0,29.76,SE,127,2.0,4.0,66,0.00,,,0.14,weatherlink.com 1.10,2013-08-31 19:42:00,
2013-08-31 15:57:00,89.5,77.0,29.75,SE,139,2.0,5.0,66,0.00,,,0.14,weatherlink.com 1.10,2013-08-31 19:57:00,
2013-08-31 16:12:00,89.7,76.0,29.75,SE,143,2.0,4.0,65,0.00,,,0.14,weatherlink.com 1.10,2013-08-31 20:12:00,
2013-08-31 16:27:00,89.9,77.0,29.73,SE,135,2.0,4.0,66,0.00,,,0.14,weatherlink.com 1.10,2013-08-31 20:27:00,
2013-08-31 16:43:00,90.0,76.0,29.72,SSW,208,2.0,3.0,64,0.00,,,0.14,weatherlink.com 1.10,2013-08-31 20:43:00,
2013-08-31 16:57:00,89.5,76.0,29.71,SE,127,1.0,4.0,65,0.00,,,0.14,weatherlink.com 1.10,2013-08-31 20:57:00,
2013-08-31 17:12:00,87.7,76.0,29.73,SE,129,2.0,4.0,69,0.00,,,0.14,weatherlink.com 1.10,2013-08-31 21:12:00,
2013-08-31 17:27:00,85.8,76.0,29.72,SE,126,2.0,3.0,72,0.00,,,0.14,weatherlink.com 1.10,2013-08-31 21:27:00,
2013-08-31 17:42:00,84.7,77.0,29.74,SE,140,3.0,4.0,77,0.00,,,0.14,weatherlink.com 1.10,2013-08-31 21:42:00,
2013-08-31 17:57:00,80.6,69.0,29.80,SW,232,1.0,14.0,68,0.00,,,0.14,weatherlink.com 1.10,2013-08-31 21:57:00,
2013-08-31 18:12:00,71.7,68.0,29.83,SW,225,9.0,19.0,88,0.09,,,0.23,weatherlink.com 1.10,2013-08-31 22:12:00,
2013-08-31 18:27:00,69.0,67.0,29.89,WSW,250,3.0,5.0,94,0.80,,,0.94,weatherlink.com 1.10,2013-08-31 22:27:00,
2013-08-31 18:42:00,68.0,67.0,29.86,NNW,344,0.0,5.0,96,1.11,,,1.25,weatherlink.com 1.10,2013-08-31 22:42:00,
2013-08-31 18:57:00,68.1,67.0,29.87,NNE,20,1.0,7.0,97,1.19,,,1.33,weatherlink.com 1.10,2013-08-31 22:57:00,
2013-08-31 19:12:00,68.1,67.0,29.85,NE,46,1.0,5.0,97,1.08,,,1.33,weatherlink.com 1.10,2013-08-31 23:12:00,
2013-08-31 19:27:00,68.3,67.0,29.84,NW,319,1.0,4.0,95,0.36,,,1.34,weatherlink.com 1.10,2013-08-31 23:27:00,
2013-08-31 19:42:00,68.2,67.0,29.83,NE,49,1.0,3.0,96,0.12,,,1.37,weatherlink.com 1.10,2013-08-31 23:42:00,
2013-08-31 19:57:00,68.0,67.0,29.85,ENE,57,2.0,2.0,97,0.08,,,1.41,weatherlink.com 1.10,2013-08-31 23:57:00,
2013-08-31 20:12:00,67.7,67.0,29.85,NE,50,0.0,1.0,98,0.13,,,1.46,weatherlink.com 1.10,2013-09-01 00:12:00,
2013-08-31 20:27:00,68.1,68.0,29.85,NNW,327,1.0,2.0,98,0.14,,,1.49,weatherlink.com 1.10,2013-09-01 00:27:00,
2013-08-31 20:42:00,68.5,68.0,29.82,SSW,198,1.0,1.0,98,0.14,,,1.51,weatherlink.com 1.10,2013-09-01 00:42:00,
2013-08-31 20:57:00,68.2,68.0,29.78,SE,132,3.0,6.0,98,0.11,,,1.52,weatherlink.com 1.10,2013-09-01 00:57:00,
2013-08-31 21:12:00,68.1,68.0,29.76,SE,141,1.0,4.0,99,0.07,,,1.53,weatherlink.com 1.10,2013-09-01 01:12:00,
2013-08-31 21:27:00,67.9,68.0,29.76,South,191,1.0,5.0,99,0.04,,,1.53,weatherlink.com 1.10,2013-09-01 01:27:00,
2013-08-31 21:42:00,68.1,68.0,29.77,SSW,204,3.0,5.0,99,0.02,,,1.53,weatherlink.com 1.10,2013-09-01 01:42:00,
2013-08-31 21:57:00,68.4,68.0,29.77,SW,216,2.0,4.0,98,0.01,,,1.53,weatherlink.com 1.10,2013-09-01 01:57:00,
2013-08-31 22:12:00,68.7,67.0,29.77,SSW,200,2.0,5.0,95,0.00,,,1.53,weatherlink.com 1.10,2013-09-01 02:12:00,
2013-08-31 22:27:00,68.5,67.0,29.77,East,95,0.0,5.0,96,0.00,,,1.53,weatherlink.com 1.10,2013-09-01 02:27:00,
2013-08-31 22:42:00,68.3,68.0,29.78,SW,214,0.0,1.0,97,0.00,,,1.53,weatherlink.com 1.10,2013-09-01 02:42:00,
2013-08-31 22:57:00,67.9,67.0,29.78,SE,135,0.0,1.0,98,0.00,,,1.53,weatherlink.com 1.10,2013-09-01 02:57:00,
2013-08-31 23:12:00,67.7,67.0,29.78,SSE,152,0.0,1.0,98,0.00,,,1.53,weatherlink.com 1.10,2013-09-01 03:12:00,
2013-08-31 23:27:00,67.9,67.0,29.79,NW,311,1.0,3.0,98,0.00,,,1.53,weatherlink.com 1.10,2013-09-01 03:27:00,
2013-08-31 23:42:00,67.9,67.0,29.80,North,349,0.0,1.0,98,0.00,,,1.53,weatherlink.com 1.10,2013-09-01 03:42:00,
2013-08-31 23:57:00,67.6,67.0,29.79,East,101,0.0,1.0,98,0.00,,,1.53,weatherlink.com 1.10,2013-09-01 03:57:00,